SCP
0 0 0 0 0 0 0 0 0 0 0 0 0 0 0 0 0 0 0 0 0 0 0 0 0 0 0 0 0 0 0 0 0 0 0 0 0 0 0 0 0 0 0
0 0 0 0 0 0 0 0 0 0 0 0 0 0 0 0 0 0 0 0 0 0 0 0 0 0 0 0 0 0 0 0 0 0 0 0 0 0 0 0 0 0 0
0 0 0 0 0 0 0 0 0 0 0 0 0 0 0 0 0 0 0 0 0 0 0 0 0 0 0 0 0 0 0 0 0 0 0 0 0 0 0 0 0 0 0
0 0 0 0 0 0 0 0 0 0 0 0 0 0 0 0 0 -0 -0 0 0 0 0 0 0 0 0 0 0 0 0 0 0 0 0 0 0 0 0 0 0 0 0
0 0 0 0 0 0 0 0 0 0 0 0 0 0 0 0 0 -0 -0 0 0 0 0 0 0 0 0 0 0 0 0 0 0 0 0 0 0 0 0 0 0 0 0
0 0 0 0 0 0 0 0 0 0 0 0 0 0 0 0 -0 -0 0 0 0 0 0 0 0 0 0 0 0 0 0 0 0 0 0 0 0 0 0 0 0 0 0
0 0 0 0 0 0 0 0 0 0 0 0 0 0 0 0 -0 -0 -0 -0 0 0 -0 0 0 0 0 0 0 0 0 0 0 0 0 0 0 0 0 0 0 0 0
0 0 0 0 0 0 0 0 0 0 0 0 0 0 0 -0 -0 -0 -0 -0 0 0 -0 -0 -0 0 0 0 0 0 0 0 0 0 0 0 0 0 0 0 0 0 0
0 0 0 0 0 0 0 0 0 0 0 0 0 0 0 -0 -0 0 0 0 0 0 0 0 0 0 0 0 0 0 0 0 0 0 0 0 0 0 0 0 0 0 0
0 0 0 0 0 0 0 0 0 0 0 0 0 0 0 0 0 0 0 0 0 0 0 0 0 0 0 0 0 0 0 0 0 0 0 0 0 0 0 0 0 0 0
0 0 0 0 0 0 0 0 0 0 0 0 0 0 0 0 0 0 0 0 0 0 0 0 0 0 0 0 0 0 0 0 0 0 0 0 0 0 0 0 0 0 0
0 0 0 0 0 0 0 0 0 0 0 0 0 0 0 0 0 0 0 0 0 0 0 0 0 0 0 0 0 0 0 0 0 0 0 0 0 0 0 0 0 0 0
0 0 0 0 0 0 0 0 0 0 0 0 0 0 0 0 0 0 0 0 0 0 0 0 0 0 0 0 0 0 0 0 0 0 0 0 0 0 0 0 0 0 0
0 0 0 0 0 0 0 0 0 0 0 0 0 0 0 0 0 0 0 0 0 0 0 0 0 0 0 0 0 0 0 0 0 0 0 0 0 0 0 0 0 0 0
0 0 0 0 0 0 0 0 0 0 0 0 0 0 0 0 0 0 0 0 0 0 0 0 0 0 0 0 0 0 0 0 0 0 0 0 0 0 0 0 0 0 0
0 0 0 0 0 0 0 0 0 0 0 0 0 0 0 -0 0 0 0 0 0 0 0 0 0 0 0 0 0 0 0 0 0 0 0 0 0 0 0 0 0 0 0
0 0 0 0 0 0 0 0 0 0 0 0 0 0 0 0 0 0 0 0 0 0 0 0 0 0 0 0 0 0 0 0 0 0 0 0 0 0 0 0 0 0 0
0 0 0 0 0 0 0 0 0 0 0 0 0 0 0 0 0 0 0 0 0 0 0 0 0 0 0 0 0 0 0 0 0 0 0 0 0 0 0 0 0 0 0
0 0 0 0 0 0 0 0 0 0 0 0 0 0 0 0 0 0 0 0 0 0 0 0 0 0 0 0 0 0 0 0 0 0 0 0 0 0 0 0 0 0 0
0 0 0 0 0 0 0 0 0 0 0 0 0 0 0 0 0 0 0 0 0 0 0 0 0 0 0 0 0 0 0 0 0 0 0 0 0 0 0 0 0 0 0
0 0 0 0 0 0 0 0 0 0 0 0 0 0 0 0 0 0 0 0 0 0 0 0 0 0 0 0 0 0 0 0 0 0 0 0 0 0 0 0 0 0 0
0 0 0 0 -0 -0 0 0 0 0 0 0 0 0 0 0 0 0 0 0 0 0 0 0 0 0 0 0 0 0 0 0 0 0 0 0 0 0 0 0 0 0 0
0 0 0 0 0 0 0 0 0 0 0 0 0 0 0 0 0 0 0 0 0 0 0 0 0 0 0 0 0 0 0 0 0 0 0 0 0 0 0 0 0 0 0
0 0 0 0 0 0 0 0 0 0 0 0 0 0 0 0 0 0 0 0 0 0 0 0 0 0 0 0 0 0 0 0 0 0 0 0 0 0 0 0 0 0 0
0 0 0 0 0 0 0 0 0 0 0 0 0 0 0 0 0 0 0 0 0 0 0 0 0 0 0 0 0 0 0 0 0 0 0 0 0 0 0 0 0 0 0
0 0 0 0 0 0 0 0 0 0 0 0 0 0 0 0 0 0 0 0 0 0 0 0 0 0 0 0 0 0 0 0 0 0 0 0 0 0 0 0 0 0 0
Wind_Speed
4 5 4 5 6 6 5 5 5 5 4 3 3 3 2 2 2 1 2 2 3 3 3 3 3 3 3 2 1 1 2 2 2 2 3 3 2 2 2 2 2 3 3
4 5 5 5 6 6 6 6 6 5 4 3 3 2 3 2 2 1 2 2 2 3 3 3 3 3 3 2 2 2 1 1 2 1 1 3 4 3 3 3 2 3 3
7 6 6 5 7 7 7 7 6 5 4 4 4 4 3 3 2 2 1 2 1 2 3 4 3 3 2 2 1 1 2 1 1 1 1 1 1 3 3 3 3 4 3
6 6 7 6 6 6 6 6 6 5 5 5 5 5 4 3 2 1 1 2 2 2 3 3 3 3 2 2 1 1 1 2 0 1 0 1 2 1 3 3 3 4 3
7 7 8 7 6 6 6 6 6 5 5 5 6 5 4 3 2 2 2 2 2 2 2 3 3 3 2 2 1 1 1 1 1 1 0 0 0 1 1 3 4 4 3
8 7 6 6 5 5 6 6 7 5 5 5 5 6 6 5 4 3 2 1 1 2 2 3 3 2 2 1 1 1 2 1 1 1 1 1 1 1 2 3 3 4 4
8 8 8 7 7 7 7 7 7 6 5 6 5 6 6 6 5 4 3 2 1 1 1 2 2 1 1 1 1 1 1 1 2 2 2 2 2 2 2 2 2 3 3
8 9 10 9 9 9 8 8 8 6 6 6 5 5 5 4 3 4 3 3 2 2 2 1 1 1 1 1 1 1 1 1 2 2 2 2 2 2 3 2 2 2 2
9 9 9 9 9 9 9 9 9 7 7 6 6 5 5 5 4 4 3 2 2 2 2 2 1 1 1 1 1 1 1 1 2 2 2 2 2 2 3 3 3 2 3
9 9 9 9 9 8 7 7 8 8 7 7 6 5 5 5 4 4 4 3 3 2 2 2 2 2 2 2 2 2 2 2 2 2 3 3 2 2 2 3 3 4 4
11 10 9 9 8 7 7 8 8 7 6 7 6 5 5 5 4 4 4 4 3 3 3 3 3 3 3 2 2 3 3 3 3 3 3 4 3 3 3 2 3 3 4
10 9 9 8 8 9 8 9 8 8 7 7 6 6 5 5 5 5 5 4 4 4 4 4 3 3 3 3 3 4 4 4 5 5 4 5 3 4 3 3 4 4 5
8 8 8 9 10 10 10 9 9 9 7 7 7 6 6 6 6 6 5 5 4 4 4 4 4 4 4 4 4 5 5 5 6 5 5 5 4 5 4 4 5 4 4
9 9 9 10 10 10 10 10 9 8 8 8 7 7 7 7 7 6 5 5 5 4 4 4 5 5 4 5 5 5 5 5 5 5 6 6 6 7 6 5 6 5 5
9 11 11 10 10 9 9 9 9 8 8 8 8 9 7 6 6 5 5 5 5 5 5 4 4 4 4 5 5 5 6 5 6 6 6 6 8 10 8 6 6 6 5
11 11 10 10 11 12 11 10 9 9 9 10 10 8 7 7 7 6 6 5 5 5 4 5 5 5 5 7 8 6 6 6 6 7 7 7 8 9 10 10 10 8 7
11 11 12 13 13 13 12 12 11 9 9 9 8 7 8 7 7 7 6 6 6 5 5 5 5 6 8 10 10 10 7 7 7 8 7 7 6 7 7 8 10 9 11
9 10 10 10 10 9 9 8 8 9 9 9 8 8 8 8 7 6 6 6 5 5 5 6 6 6 8 10 11 10 7 7 8 9 9 8 9 8 7 7 7 8 8
8 8 8 8 7 8 8 9 8 8 8 9 9 9 9 8 7 7 7 6 5 5 5 5 6 7 9 11 11 9 5 7 9 9 9 9 10 11 10 7 8 9 9
3 4 5 5 6 7 8 9 9 9 10 11 10 8 8 8 8 8 7 5 5 6 6 6 7 8 9 11 12 9 5 7 8 7 8 11 12 12 10 8 8 10 10
2 4 6 6 6 7 9 9 9 11 11 7 6 6 7 7 7 6 5 5 5 5 6 7 7 7 9 11 13 11 6 7 7 7 7 7 11 13 12 10 9 12 10
3 4 5 3 4 7 8 8 9 8 5 5 5 5 6 6 5 5 5 4 5 5 6 6 7 6 7 9 11 13 12 10 8 8 7 8 10 11 12 9 11 13 10
3 3 4 4 3 5 7 8 6 4 5 5 4 4 4 4 4 5 5 4 5 5 5 5 6 7 6 7 12 13 14 14 10 9 11 11 11 10 10 12 13 10 7
3 4 5 5 3 3 4 3 3 5 5 4 3 3 3 3 3 3 4 4 5 5 6 6 7 7 6 6 6 6 7 9 9 9 9 10 11 9 10 10 8 7 7
4 5 5 4 3 3 3 2 3 5 4 3 3 2 3 3 3 4 5 6 7 7 7 7 7 7 8 9 10 7 6 6 6 4 4 5 5 6 6 7 7 6 6
4 5 5 4 3 3 2 1 3 4 4 2 2 2 2 2 2 3 4 8 9 11 13 13 11 9 12 14 13 12 13 12 8 5 6 7 7 8 8 7 7 6 7
Wind_Direction
154 155 152 140 136 135 136 132 128 131 130 120 117 116 116 104 96 103 114 117 124 129 129 123 114 101 96 91 83 85 57 25 4 14 345 335 341 346 347 338 345 346 332
151 151 149 151 151 153 153 146 149 150 146 133 126 123 119 105 91 78 77 83 110 138 145 138 129 121 111 90 74 84 85 27 28 66 40 351 345 346 359 353 7 358 352
170 164 161 162 156 162 165 160 159 154 142 126 109 95 78 65 60 55 53 35 79 120 125 137 133 131 126 124 114 113 120 99 20 51 124 123 282 313 326 349 4 358 359
177 170 168 168 170 167 158 155 153 144 137 138 140 142 140 140 152 131 97 55 56 86 109 126 132 131 128 135 146 123 122 134 119 12 43 176 181 228 319 325 340 348 352
185 182 180 177 171 163 157 154 142 138 142 145 146 138 127 127 114 98 95 71 47 60 91 117 127 133 136 142 130 118 124 141 169 186 177 101 83 176 213 295 321 331 323
186 182 177 166 164 162 154 150 145 145 149 148 146 145 142 141 134 129 125 98 64 51 76 109 117 128 137 151 153 147 148 157 168 179 187 189 196 203 203 246 287 303 303
178 176 174 174 174 169 161 157 156 159 159 154 153 154 153 154 157 157 159 155 145 140 147 117 128 141 162 165 156 162 180 182 189 201 207 210 220 207 197 220 260 281 296
179 182 182 180 179 176 169 165 169 168 166 164 163 156 154 154 159 165 165 172 180 191 185 159 170 182 178 167 161 183 218 204 217 232 221 225 234 213 204 205 214 272 288
184 188 185 181 179 178 179 175 171 169 171 170 162 161 164 165 169 170 168 176 191 198 187 185 195 214 209 199 187 216 242 230 238 245 243 242 248 230 225 221 210 224 272
188 190 187 188 185 182 178 171 171 175 173 171 171 173 176 176 172 169 185 195 202 199 191 207 218 231 232 216 206 234 243 240 250 240 242 247 249 248 236 227 223 221 237
194 193 192 189 180 172 171 175 176 171 173 177 176 172 177 177 176 187 200 200 202 202 207 215 220 231 240 232 223 242 246 248 259 258 249 257 255 255 253 239 230 227 222
197 192 185 175 174 177 178 181 181 180 182 177 173 179 177 175 185 201 207 202 208 212 213 215 222 236 241 235 232 247 249 246 254 257 254 262 261 254 254 246 246 244 230
192 182 176 181 184 185 184 185 186 186 178 170 173 178 183 187 199 207 207 205 210 217 218 216 228 241 246 244 241 241 248 247 249 250 248 255 254 259 256 251 253 254 253
188 185 188 191 189 187 185 186 188 182 174 172 177 188 196 198 203 205 207 209 211 218 225 227 234 242 248 250 250 246 249 251 252 249 248 251 248 253 258 258 255 255 259
191 193 195 194 188 185 185 186 186 180 175 175 187 201 201 197 198 205 211 212 215 224 225 231 242 246 246 245 243 244 247 248 257 259 255 255 255 253 251 254 252 250 254
201 199 195 190 189 190 190 187 187 183 174 183 197 199 192 194 202 209 209 210 219 223 221 229 238 247 249 253 253 247 248 250 254 263 266 266 265 266 268 266 261 247 246
202 197 195 195 196 194 188 189 189 175 176 189 195 193 193 199 206 206 203 213 218 218 225 233 236 246 255 260 262 257 246 247 251 254 261 266 264 263 267 274 277 270 258
201 202 200 199 197 187 180 175 163 168 180 190 196 195 194 203 204 200 209 215 211 217 227 235 237 246 257 258 259 261 252 250 252 251 250 255 264 263 257 267 273 273 269
197 198 196 191 177 173 167 156 163 172 184 197 202 198 194 200 199 205 213 210 206 220 225 232 235 242 258 260 259 256 247 252 259 256 251 247 255 259 254 255 265 275 276
184 177 162 152 161 166 153 157 171 179 197 204 204 196 192 196 202 210 211 203 206 222 227 238 238 239 252 260 259 250 235 251 260 262 255 246 246 253 251 247 252 265 273
137 145 149 163 176 158 153 169 179 199 207 196 185 184 191 198 203 204 202 202 211 224 232 244 250 246 249 258 259 250 225 236 251 258 259 253 244 247 250 243 242 250 261
83 122 142 156 145 149 163 179 198 206 177 162 176 189 195 199 200 198 205 203 208 226 240 248 261 258 252 249 255 252 238 229 237 250 254 254 252 251 253 250 248 252 257
75 97 126 127 130 158 170 188 200 156 148 160 184 195 197 202 195 197 208 209 210 226 241 243 255 265 262 255 250 253 251 239 233 245 247 251 256 260 260 254 254 256 253
75 88 102 110 118 141 160 169 141 141 147 165 186 189 195 207 209 210 214 216 220 229 239 245 252 260 265 265 259 252 253 249 242 247 253 257 260 258 259 264 261 251 243
64 82 95 99 98 103 104 105 123 136 146 160 175 188 200 208 220 226 227 227 230 224 228 240 242 249 260 258 246 241 247 242 241 240 248 253 256 258 258 258 258 253 244
66 75 77 80 86 98 94 99 125 135 144 153 175 199 214 221 232 250 267 247 245 252 244 245 245 248 247 261 267 259 253 253 245 219 240 251 252 253 257 260 263 257 249